Location: Central Falls
(41.8900°N, 71.3929°W)
Time: 14:54:21
(UTC+00:00)

Vanguard 1 - Pass Details

Date: 08 December 2023
Orbit: 653 x 3826 km, 34.3° (Epoch: 24 February)

Event Time Altitude Azimuth Distance (km) Brightness Sun altitude
Rises 02:34:08 0° 278° (W) 6,859 14.8 -58.0°
Reaches altitude 10° 02:38:18 10° 274° (W) 6,153 14.4 -58.6°
Enters shadow 02:53:09 49° 240° (WSW) 4,413 13.1 -61.0°
Maximum altitude 02:58:44 56° 204° (SSW) 4,265 - -61.9°
Drops below altitude 10° 03:19:54 10° 134° (SE) 6,319 - -64.9°
Sets 03:24:17 0° 130° (SE) 7,041 - -65.5°
